DAL1947 KATL-MYNN

Flight info

Callsign DAL1947
Flight time 1h 36m
Altitude 35000
Route VRSTY3 NOKIE DCT YANTI Q89 PRMUS/N0453F360 Q93 DEBRL/N0453F350 Q93 MALET DCT ZFP DCT HANKX
Aircraft B738/M-SDE2E3FGHIRWXY/LB1

Departure

Time 2026-05-07 20:06
Airport Hartsfield Jackson Atlanta International Airport (KATL)

Arrival

Time 2026-05-07 21:42
Airport Lynden Pindling International Airport (MYNN)
Time Latitude Longitude Altitude Speed Heading
2026-05-07 19:52 33.63863 -84.42982 1006 ft 0 kts 90°
2026-05-07 19:56 33.63863 -84.42984 1006 ft 1 kts 91°
2026-05-07 19:56 33.63862 -84.43001 1007 ft 2 kts 88°
2026-05-07 19:57 33.63863 -84.43019 1007 ft 2 kts 91°
2026-05-07 19:57 33.63863 -84.43021 1007 ft 2 kts 91°
2026-05-07 19:57 33.63863 -84.43036 1008 ft 2 kts 89°
2026-05-07 19:57 33.63866 -84.43053 1008 ft 2 kts 132°
2026-05-07 19:58 33.63879 -84.43063 1008 ft 2 kts 168°
2026-05-07 19:58 33.63885 -84.43063 1008 ft 0 kts 183°
2026-05-07 19:58 33.63871 -84.43062 1008 ft 1 kts 178°
2026-05-07 19:58 33.63870 -84.43062 1008 ft 0 kts 178°
2026-05-07 20:00 33.63864 -84.43062 1008 ft 2 kts 178°
2026-05-07 20:00 33.63825 -84.43063 1008 ft 11 kts 183°
2026-05-07 20:01 33.63714 -84.43063 1007 ft 19 kts 175°
2026-05-07 20:01 33.63664 -84.42937 1005 ft 19 kts 90°
2026-05-07 20:01 33.63664 -84.42754 1002 ft 25 kts 92°
2026-05-07 20:01 33.63657 -84.42529 996 ft 28 kts 90°
2026-05-07 20:02 33.63656 -84.42281 989 ft 30 kts 90°
2026-05-07 20:02 33.63660 -84.42020 981 ft 32 kts 91°
2026-05-07 20:02 33.63656 -84.41737 972 ft 33 kts 91°
2026-05-07 20:02 33.63656 -84.41466 965 ft 29 kts 90°
2026-05-07 20:03 33.63656 -84.41220 961 ft 28 kts 90°
2026-05-07 20:03 33.63630 -84.41045 958 ft 16 kts 159°
2026-05-07 20:03 33.63525 -84.41039 958 ft 14 kts 180°
2026-05-07 20:03 33.63472 -84.41089 959 ft 7 kts 266°
2026-05-07 20:04 33.63472 -84.41097 959 ft 0 kts 270°
2026-05-07 20:05 33.63472 -84.41111 959 ft 9 kts 270°
2026-05-07 20:05 33.63472 -84.41481 966 ft 77 kts 270°
2026-05-07 20:05 33.63472 -84.42358 992 ft 133 kts 271°
2026-05-07 20:06 33.63471 -84.43670 1015 ft 178 kts 271°
2026-05-07 20:06 33.63453 -84.45174 1633 ft 177 kts 271°
2026-05-07 20:06 33.63427 -84.46564 2411 ft 165 kts 272°
2026-05-07 20:06 33.63427 -84.47970 2885 ft 175 kts 274°
2026-05-07 20:07 33.63452 -84.49459 3419 ft 185 kts 273°
2026-05-07 20:07 33.63464 -84.51019 3915 ft 197 kts 272°
2026-05-07 20:07 33.63463 -84.52741 4435 ft 212 kts 272°
2026-05-07 20:07 33.63461 -84.54551 5036 ft 224 kts 271°
2026-05-07 20:08 33.63461 -84.56416 5707 ft 233 kts 271°
2026-05-07 20:08 33.63461 -84.58401 6353 ft 243 kts 271°
2026-05-07 20:08 33.63460 -84.60412 7185 ft 245 kts 271°
2026-05-07 20:08 33.63453 -84.62444 8013 ft 247 kts 269°
2026-05-07 20:09 33.63215 -84.64465 8851 ft 250 kts 255°
2026-05-07 20:09 33.62332 -84.66291 9611 ft 262 kts 232°
2026-05-07 20:09 33.60943 -84.67568 10414 ft 270 kts 218°
2026-05-07 20:10 33.57475 -84.69514 11858 ft 291 kts 202°
2026-05-07 20:10 33.55404 -84.69590 12600 ft 311 kts 185°
2026-05-07 20:10 33.53211 -84.69187 13234 ft 322 kts 181°
2026-05-07 20:10 33.51030 -84.68682 13906 ft 325 kts 181°
2026-05-07 20:11 33.48808 -84.68173 14637 ft 324 kts 182°
2026-05-07 20:11 33.46620 -84.67705 15375 ft 322 kts 184°
2026-05-07 20:11 33.43673 -84.66898 16337 ft 334 kts 173°
2026-05-07 20:11 33.42239 -84.66067 16749 ft 355 kts 158°
2026-05-07 20:12 33.40339 -84.63970 17096 ft 391 kts 137°
2026-05-07 20:12 33.38810 -84.61225 17435 ft 411 kts 128°
2026-05-07 20:12 33.37454 -84.58349 17559 ft 431 kts 126°
2026-05-07 20:12 33.36029 -84.55146 17851 ft 444 kts 125°
2026-05-07 20:13 33.34558 -84.51837 18084 ft 458 kts 125°
2026-05-07 20:13 33.33028 -84.48463 18599 ft 463 kts 125°
2026-05-07 20:13 33.31468 -84.45099 19007 ft 470 kts 126°
2026-05-07 20:13 33.29857 -84.41688 19588 ft 472 kts 127°
2026-05-07 20:14 33.28329 -84.38493 20072 ft 476 kts 126°
2026-05-07 20:14 33.26674 -84.35059 20664 ft 478 kts 126°
2026-05-07 20:14 33.25000 -84.31599 21150 ft 481 kts 127°
2026-05-07 20:14 33.23397 -84.28299 21599 ft 485 kts 127°
2026-05-07 20:15 33.21695 -84.24799 22058 ft 488 kts 127°
2026-05-07 20:15 33.20097 -84.21514 22460 ft 492 kts 127°
2026-05-07 20:15 33.18393 -84.18015 22920 ft 495 kts 127°
2026-05-07 20:15 33.16654 -84.14444 23391 ft 497 kts 127°
2026-05-07 20:16 33.14913 -84.10873 23789 ft 502 kts 127°
2026-05-07 20:16 33.13153 -84.07267 24199 ft 505 kts 127°
2026-05-07 20:16 33.11391 -84.03692 24657 ft 507 kts 128°
2026-05-07 20:16 33.09479 -84.00118 25015 ft 507 kts 133°
2026-05-07 20:17 33.07283 -83.96867 25450 ft 499 kts 142°
2026-05-07 20:17 33.04815 -83.94084 25838 ft 493 kts 149°
2026-05-07 20:17 33.02114 -83.91563 26272 ft 489 kts 153°
2026-05-07 20:17 32.99337 -83.89236 26619 ft 490 kts 155°
2026-05-07 20:18 32.96487 -83.86967 26992 ft 492 kts 156°
2026-05-07 20:18 32.93634 -83.84727 27422 ft 494 kts 156°
2026-05-07 20:18 32.90757 -83.82461 27783 ft 497 kts 156°
2026-05-07 20:18 32.87906 -83.80194 28131 ft 500 kts 156°
2026-05-07 20:19 32.85004 -83.77863 28397 ft 506 kts 155°
2026-05-07 20:19 32.82096 -83.75497 28899 ft 505 kts 155°
2026-05-07 20:19 32.79325 -83.73216 29572 ft 499 kts 155°
2026-05-07 20:19 32.76487 -83.70862 30158 ft 496 kts 155°
2026-05-07 20:20 32.73640 -83.68497 30573 ft 497 kts 155°
2026-05-07 20:20 32.70831 -83.66167 31006 ft 495 kts 155°
2026-05-07 20:20 32.68005 -83.63812 31496 ft 494 kts 154°
2026-05-07 20:20 32.65219 -83.61428 31910 ft 494 kts 154°
2026-05-07 20:21 32.62483 -83.59021 32445 ft 491 kts 153°
2026-05-07 20:21 32.59763 -83.56597 32910 ft 489 kts 153°
2026-05-07 20:21 32.57040 -83.54165 33337 ft 488 kts 153°
2026-05-07 20:21 32.54327 -83.51744 33770 ft 486 kts 153°
2026-05-07 20:22 32.51639 -83.49352 34111 ft 487 kts 153°
2026-05-07 20:22 32.48944 -83.46964 34486 ft 487 kts 153°
2026-05-07 20:22 32.46210 -83.44550 34842 ft 486 kts 153°
2026-05-07 20:23 32.40781 -83.39772 34919 ft 484 kts 153°
2026-05-07 20:23 32.35414 -83.35054 34917 ft 483 kts 153°
2026-05-07 20:24 32.29977 -83.30289 34922 ft 482 kts 154°
2026-05-07 20:24 32.24589 -83.25576 34929 ft 480 kts 154°
2026-05-07 20:25 32.19223 -83.20891 34932 ft 480 kts 153°
2026-05-07 20:25 32.13825 -83.16187 34931 ft 480 kts 153°
2026-05-07 20:26 32.08465 -83.11520 34927 ft 478 kts 153°
2026-05-07 20:26 32.03132 -83.06889 34921 ft 480 kts 153°
2026-05-07 20:27 31.97757 -83.02226 34920 ft 479 kts 153°
2026-05-07 20:27 31.92379 -82.97570 34917 ft 479 kts 153°
2026-05-07 20:28 31.86989 -82.92911 34915 ft 481 kts 153°
2026-05-07 20:28 31.81607 -82.88263 34913 ft 482 kts 152°
2026-05-07 20:29 31.76217 -82.83549 34912 ft 486 kts 150°
2026-05-07 20:29 31.70925 -82.78561 34915 ft 486 kts 149°
2026-05-07 20:30 31.65735 -82.73539 34919 ft 489 kts 148°
2026-05-07 20:30 31.60496 -82.68493 34918 ft 487 kts 148°
2026-05-07 20:31 31.55205 -82.63448 34926 ft 486 kts 149°
2026-05-07 20:31 31.49963 -82.58482 34929 ft 488 kts 148°
2026-05-07 20:32 31.44679 -82.53495 34928 ft 488 kts 148°
2026-05-07 20:32 31.39419 -82.48534 34932 ft 488 kts 148°
2026-05-07 20:33 31.34114 -82.43542 34935 ft 490 kts 148°
2026-05-07 20:33 31.28808 -82.38555 34939 ft 491 kts 148°
2026-05-07 20:33 31.26104 -82.36018 35048 ft 494 kts 148°
2026-05-07 20:34 31.23418 -82.33501 35411 ft 493 kts 149°
2026-05-07 20:34 31.20763 -82.31009 35853 ft 489 kts 149°
2026-05-07 20:34 31.18136 -82.28545 36157 ft 489 kts 149°
2026-05-07 20:34 31.15487 -82.26063 36474 ft 488 kts 148°
2026-05-07 20:35 31.12823 -82.23573 36589 ft 491 kts 149°
2026-05-07 20:35 31.10148 -82.21077 36772 ft 493 kts 149°
2026-05-07 20:35 31.07460 -82.18567 36920 ft 494 kts 149°
2026-05-07 20:36 31.02123 -82.13586 36912 ft 489 kts 148°
2026-05-07 20:36 30.96814 -82.08637 36913 ft 490 kts 148°
2026-05-07 20:37 30.91458 -82.03661 36911 ft 492 kts 148°
2026-05-07 20:37 30.86111 -81.98696 36909 ft 491 kts 148°
2026-05-07 20:38 30.80796 -81.93764 36908 ft 489 kts 148°
2026-05-07 20:38 30.75446 -81.88812 36911 ft 491 kts 148°
2026-05-07 20:39 30.70133 -81.83903 36911 ft 491 kts 148°
2026-05-07 20:39 30.64811 -81.78990 36923 ft 488 kts 148°
2026-05-07 20:40 30.59449 -81.74149 36930 ft 487 kts 150°
2026-05-07 20:40 30.53925 -81.69645 36929 ft 484 kts 152°
2026-05-07 20:41 30.48326 -81.65244 36933 ft 485 kts 153°
2026-05-07 20:41 30.42761 -81.60855 36938 ft 486 kts 152°
2026-05-07 20:42 30.37157 -81.56399 36935 ft 486 kts 152°
2026-05-07 20:42 30.31648 -81.51991 36934 ft 484 kts 152°
2026-05-07 20:43 30.26097 -81.47548 36935 ft 486 kts 152°
2026-05-07 20:43 30.20519 -81.43085 36934 ft 487 kts 152°
2026-05-07 20:44 30.14961 -81.38641 36935 ft 486 kts 152°
2026-05-07 20:44 30.09406 -81.34206 36934 ft 485 kts 152°
2026-05-07 20:45 30.03856 -81.29782 36937 ft 487 kts 152°
2026-05-07 20:45 29.98297 -81.25359 36929 ft 485 kts 152°
2026-05-07 20:46 29.92742 -81.20944 36929 ft 484 kts 152°
2026-05-07 20:46 29.87170 -81.16534 36925 ft 484 kts 152°
2026-05-07 20:47 29.81298 -81.13003 36921 ft 465 kts 171°
2026-05-07 20:47 29.78157 -81.12289 36921 ft 454 kts 182°
2026-05-07 20:47 29.74997 -81.12084 36923 ft 452 kts 187°
2026-05-07 20:48 29.68724 -81.12092 36919 ft 449 kts 189°
2026-05-07 20:48 29.62483 -81.12221 36924 ft 448 kts 189°
2026-05-07 20:49 29.56298 -81.12328 36922 ft 448 kts 189°
2026-05-07 20:49 29.50045 -81.12541 36926 ft 447 kts 190°
2026-05-07 20:50 29.43824 -81.12817 36927 ft 446 kts 190°
2026-05-07 20:50 29.37641 -81.13085 36926 ft 447 kts 189°
2026-05-07 20:51 29.31358 -81.13147 36918 ft 454 kts 183°
2026-05-07 20:51 29.25091 -81.11635 36919 ft 468 kts 168°
2026-05-07 20:52 29.18954 -81.09038 36921 ft 471 kts 165°
2026-05-07 20:52 29.12859 -81.06206 36920 ft 472 kts 164°
2026-05-07 20:53 29.06798 -81.03414 36923 ft 471 kts 165°
2026-05-07 20:53 29.00690 -81.00665 36922 ft 471 kts 165°
2026-05-07 20:54 28.94583 -80.97960 36918 ft 472 kts 165°
2026-05-07 20:54 28.88445 -80.95258 36907 ft 470 kts 165°
2026-05-07 20:55 28.82286 -80.92557 36910 ft 472 kts 165°
2026-05-07 20:55 28.76127 -80.89858 36924 ft 469 kts 165°
2026-05-07 20:56 28.70124 -80.86900 36934 ft 476 kts 156°
2026-05-07 20:56 28.64615 -80.82603 36933 ft 484 kts 145°
2026-05-07 20:57 28.59472 -80.77632 36940 ft 485 kts 142°
2026-05-07 20:57 28.54458 -80.72528 36940 ft 485 kts 142°
2026-05-07 20:58 28.49399 -80.67406 36938 ft 484 kts 142°
2026-05-07 20:58 28.44349 -80.62372 36938 ft 484 kts 142°
2026-05-07 20:59 28.39273 -80.57362 36936 ft 484 kts 142°
2026-05-07 20:59 28.34189 -80.52368 36943 ft 483 kts 142°
2026-05-07 21:00 28.29113 -80.47394 36946 ft 482 kts 142°
2026-05-07 21:00 28.24021 -80.42412 36949 ft 483 kts 142°
2026-05-07 21:01 28.18941 -80.37449 36943 ft 484 kts 142°
2026-05-07 21:01 28.13839 -80.32468 36938 ft 483 kts 143°
2026-05-07 21:02 28.07930 -80.26705 36938 ft 482 kts 143°
2026-05-07 21:02 28.03687 -80.22574 36938 ft 481 kts 143°
2026-05-07 21:03 27.98616 -80.17641 36946 ft 481 kts 143°
2026-05-07 21:03 27.93541 -80.12714 36958 ft 483 kts 143°
2026-05-07 21:04 27.88431 -80.07758 36967 ft 480 kts 142°
2026-05-07 21:04 27.83383 -80.02866 36971 ft 481 kts 142°
2026-05-07 21:05 27.78281 -79.97930 36974 ft 481 kts 142°
2026-05-07 21:05 27.73222 -79.93041 36973 ft 480 kts 142°
2026-05-07 21:06 27.68160 -79.88155 36978 ft 480 kts 142°
2026-05-07 21:06 27.63080 -79.83259 36977 ft 481 kts 142°
2026-05-07 21:07 27.57982 -79.78351 36971 ft 480 kts 142°
2026-05-07 21:07 27.52921 -79.73486 36967 ft 479 kts 142°
2026-05-07 21:08 27.47829 -79.68596 36967 ft 479 kts 142°
2026-05-07 21:08 27.42755 -79.63731 36967 ft 479 kts 142°
2026-05-07 21:09 27.37690 -79.58880 36970 ft 479 kts 142°
2026-05-07 21:09 27.32604 -79.54015 36972 ft 479 kts 142°
2026-05-07 21:10 27.27521 -79.49160 36974 ft 478 kts 141°
2026-05-07 21:10 27.22478 -79.44348 36974 ft 478 kts 141°
2026-05-07 21:11 27.17402 -79.39510 36979 ft 478 kts 141°
2026-05-07 21:11 27.09781 -79.32257 36980 ft 478 kts 142°
2026-05-07 21:12 27.04719 -79.27447 36981 ft 477 kts 142°
2026-05-07 21:12 26.99655 -79.22641 36983 ft 477 kts 142°
2026-05-07 21:13 26.94605 -79.17855 36984 ft 477 kts 142°
2026-05-07 21:13 26.89534 -79.13055 36986 ft 476 kts 141°
2026-05-07 21:14 26.84449 -79.08247 36989 ft 477 kts 141°
2026-05-07 21:14 26.79401 -79.03481 36991 ft 477 kts 141°
2026-05-07 21:15 26.74321 -78.98690 36993 ft 477 kts 141°
2026-05-07 21:15 26.69239 -78.93903 36997 ft 477 kts 141°
2026-05-07 21:16 26.64174 -78.89136 36998 ft 477 kts 141°
2026-05-07 21:16 26.61625 -78.86740 36851 ft 473 kts 141°
2026-05-07 21:16 26.59119 -78.84384 36465 ft 467 kts 141°
2026-05-07 21:17 26.56670 -78.82083 35958 ft 465 kts 141°
2026-05-07 21:17 26.54218 -78.79730 35298 ft 467 kts 139°
2026-05-07 21:17 26.51917 -78.77165 34799 ft 464 kts 133°
2026-05-07 21:17 26.49818 -78.74419 34293 ft 469 kts 129°
2026-05-07 21:18 26.47835 -78.71547 33791 ft 471 kts 127°
2026-05-07 21:18 26.45919 -78.68607 33294 ft 467 kts 126°
2026-05-07 21:18 26.44052 -78.65655 32819 ft 463 kts 125°
2026-05-07 21:18 26.42218 -78.62723 32347 ft 459 kts 125°
2026-05-07 21:19 26.40416 -78.59843 31869 ft 455 kts 125°
2026-05-07 21:19 26.38597 -78.56945 31377 ft 452 kts 125°
2026-05-07 21:19 26.36825 -78.54137 30905 ft 448 kts 126°
2026-05-07 21:19 26.35017 -78.51285 30417 ft 445 kts 126°
2026-05-07 21:20 26.33247 -78.48502 29942 ft 442 kts 126°
2026-05-07 21:20 26.31469 -78.45716 29460 ft 439 kts 126°
2026-05-07 21:20 26.29711 -78.42968 28987 ft 436 kts 126°
2026-05-07 21:20 26.27970 -78.40253 28523 ft 433 kts 126°
2026-05-07 21:21 26.26235 -78.37550 28053 ft 430 kts 126°
2026-05-07 21:21 26.24484 -78.34824 27573 ft 428 kts 126°
2026-05-07 21:21 26.22769 -78.32156 27101 ft 425 kts 126°
2026-05-07 21:21 26.21061 -78.29501 26629 ft 422 kts 126°
2026-05-07 21:22 26.19357 -78.26855 26155 ft 419 kts 126°
2026-05-07 21:22 26.17663 -78.24223 25678 ft 417 kts 126°
2026-05-07 21:22 26.15993 -78.21632 25207 ft 414 kts 126°
2026-05-07 21:22 26.14313 -78.19026 24736 ft 411 kts 126°
2026-05-07 21:23 26.12664 -78.16472 24270 ft 409 kts 126°
2026-05-07 21:23 26.11002 -78.13898 23800 ft 406 kts 126°
2026-05-07 21:23 26.09374 -78.11378 23344 ft 404 kts 126°
2026-05-07 21:23 26.07737 -78.08848 22874 ft 401 kts 126°
2026-05-07 21:24 26.06116 -78.06341 22412 ft 399 kts 126°
2026-05-07 21:24 26.04501 -78.03846 21954 ft 397 kts 126°
2026-05-07 21:24 26.02893 -78.01363 21491 ft 395 kts 126°
2026-05-07 21:24 26.01295 -77.98897 21034 ft 392 kts 126°
2026-05-07 21:25 25.99723 -77.96472 20578 ft 390 kts 126°
2026-05-07 21:25 25.98134 -77.94023 20113 ft 388 kts 126°
2026-05-07 21:25 25.96575 -77.91619 19658 ft 386 kts 125°
2026-05-07 21:25 25.95010 -77.89208 19198 ft 383 kts 125°
2026-05-07 21:26 25.93452 -77.86809 18756 ft 380 kts 125°
2026-05-07 21:26 25.91908 -77.84431 18327 ft 377 kts 124°
2026-05-07 21:26 25.90401 -77.82110 17884 ft 375 kts 124°
2026-05-07 21:26 25.88859 -77.79736 17425 ft 372 kts 124°
2026-05-07 21:27 25.87356 -77.77425 16969 ft 370 kts 124°
2026-05-07 21:27 25.85866 -77.75136 16478 ft 368 kts 124°
2026-05-07 21:27 25.84364 -77.72829 16021 ft 366 kts 124°
2026-05-07 21:27 25.82895 -77.70575 15579 ft 363 kts 124°
2026-05-07 21:28 25.81419 -77.68310 15135 ft 360 kts 125°
2026-05-07 21:28 25.79957 -77.66070 14690 ft 357 kts 124°
2026-05-07 21:28 25.78524 -77.63876 14260 ft 354 kts 124°
2026-05-07 21:28 25.77070 -77.61649 13821 ft 351 kts 124°
2026-05-07 21:29 25.75666 -77.59500 13394 ft 348 kts 124°
2026-05-07 21:29 25.74245 -77.57325 12964 ft 345 kts 125°
2026-05-07 21:29 25.72855 -77.55200 12543 ft 342 kts 124°
2026-05-07 21:29 25.71468 -77.53080 12126 ft 339 kts 124°
2026-05-07 21:30 25.70037 -77.50987 11700 ft 336 kts 129°
2026-05-07 21:30 25.68316 -77.49213 11282 ft 334 kts 147°
2026-05-07 21:30 25.66164 -77.48302 10868 ft 331 kts 170°
2026-05-07 21:30 25.63906 -77.48074 10442 ft 329 kts 178°
2026-05-07 21:31 25.61594 -77.48037 10038 ft 326 kts 179°
2026-05-07 21:31 25.59381 -77.48016 9874 ft 314 kts 179°
2026-05-07 21:31 25.57200 -77.47960 9509 ft 310 kts 178°
2026-05-07 21:31 25.54429 -77.47834 9336 ft 286 kts 176°
2026-05-07 21:32 25.53124 -77.47774 9279 ft 275 kts 179°
2026-05-07 21:32 25.51267 -77.47931 9099 ft 263 kts 193°
2026-05-07 21:32 25.49541 -77.48586 8729 ft 259 kts 204°
2026-05-07 21:32 25.47401 -77.49697 8298 ft 253 kts 205°
2026-05-07 21:33 25.45801 -77.50511 7999 ft 250 kts 204°
2026-05-07 21:33 25.44753 -77.51019 7771 ft 250 kts 203°
2026-05-07 21:33 25.43146 -77.51774 7467 ft 249 kts 203°
2026-05-07 21:33 25.41025 -77.52753 7062 ft 248 kts 203°
2026-05-07 21:34 25.39427 -77.53490 6757 ft 247 kts 203°
2026-05-07 21:34 25.38361 -77.53982 6555 ft 247 kts 203°
2026-05-07 21:34 25.36771 -77.54720 6252 ft 246 kts 203°
2026-05-07 21:34 25.35211 -77.55442 5955 ft 245 kts 203°
2026-05-07 21:35 25.33128 -77.56407 5571 ft 243 kts 203°
2026-05-07 21:35 25.32085 -77.56889 5378 ft 242 kts 203°
2026-05-07 21:35 25.30533 -77.57608 5087 ft 241 kts 203°
2026-05-07 21:35 25.29003 -77.58315 4816 ft 237 kts 203°
2026-05-07 21:36 25.27494 -77.59014 4513 ft 231 kts 203°
2026-05-07 21:36 25.26036 -77.59689 4239 ft 225 kts 202°
2026-05-07 21:36 25.24606 -77.60350 3974 ft 220 kts 202°
2026-05-07 21:36 25.23205 -77.60999 3716 ft 215 kts 202°
2026-05-07 21:37 25.21846 -77.61632 3474 ft 210 kts 202°
2026-05-07 21:37 25.20503 -77.62220 3235 ft 206 kts 197°
2026-05-07 21:37 25.19104 -77.62372 3004 ft 201 kts 167°
2026-05-07 21:37 25.17905 -77.61694 2933 ft 189 kts 139°
2026-05-07 21:38 25.16983 -77.60649 2943 ft 193 kts 132°
2026-05-07 21:38 25.15751 -77.59222 2855 ft 194 kts 135°
2026-05-07 21:38 25.14795 -77.58179 2601 ft 191 kts 135°
2026-05-07 21:38 25.13880 -77.57172 2356 ft 179 kts 134°
2026-05-07 21:39 25.13308 -77.56536 2213 ft 171 kts 134°
2026-05-07 21:39 25.12479 -77.55617 1994 ft 162 kts 134°
2026-05-07 21:39 25.11403 -77.54427 1692 ft 165 kts 133°
2026-05-07 21:39 25.10595 -77.53532 1478 ft 164 kts 133°
2026-05-07 21:40 25.09789 -77.52639 1265 ft 163 kts 133°
2026-05-07 21:40 25.09000 -77.51768 1054 ft 159 kts 133°
2026-05-07 21:40 25.08486 -77.51203 923 ft 156 kts 134°
2026-05-07 21:40 25.07724 -77.50358 728 ft 155 kts 133°
2026-05-07 21:41 25.06690 -77.49224 496 ft 155 kts 134°
2026-05-07 21:41 25.06176 -77.48676 332 ft 157 kts 134°
2026-05-07 21:41 25.05414 -77.47827 140 ft 157 kts 134°
2026-05-07 21:41 25.04455 -77.46754 23 ft 117 kts 134°
2026-05-07 21:42 25.04152 -77.46416 23 ft 71 kts 134°
2026-05-07 21:42 25.03797 -77.46024 23 ft 34 kts 135°
2026-05-07 21:42 25.03746 -77.45959 23 ft 8 kts 85°
2026-05-07 21:42 25.03814 -77.45886 23 ft 13 kts 41°
2026-05-07 21:43 25.03871 -77.45861 23 ft 14 kts 342°
2026-05-07 21:43 25.03953 -77.45941 23 ft 17 kts 314°
2026-05-07 21:43 25.04087 -77.46091 23 ft 22 kts 315°
2026-05-07 21:43 25.04204 -77.46218 23 ft 23 kts 313°
2026-05-07 21:44 25.04277 -77.46300 23 ft 22 kts 314°
2026-05-07 21:44 25.04387 -77.46423 23 ft 23 kts 314°
2026-05-07 21:44 25.04546 -77.46600 23 ft 23 kts 315°
2026-05-07 21:44 25.04661 -77.46728 23 ft 23 kts 314°
2026-05-07 21:45 25.04772 -77.46850 23 ft 22 kts 314°
2026-05-07 21:45 25.04843 -77.46929 23 ft 20 kts 315°
2026-05-07 21:45 25.04940 -77.47036 23 ft 19 kts 314°
2026-05-07 21:45 25.05025 -77.47115 23 ft 14 kts
2026-05-07 21:46 25.05069 -77.47045 23 ft 7 kts 140°
2026-05-07 21:46 25.05037 -77.47018 23 ft 11 kts 139°
2026-05-07 21:46 25.04967 -77.46938 23 ft 9 kts 109°
2026-05-07 21:46 25.04984 -77.46871 23 ft 8 kts 69°
2026-05-07 21:47 25.05028 -77.46837 23 ft 7 kts 358°
2026-05-07 21:47 25.05047 -77.46841 23 ft 1 kts 346°
2026-05-07 21:47 25.05055 -77.46843 23 ft 0 kts 346°
2026-05-07 21:47 25.05059 -77.46844 23 ft 1 kts 347°
2026-05-07 21:48 25.05062 -77.46845 23 ft 0 kts 347°